Time,TemperatureF,DewpointF,PressureIn,WindDirection,WindDirectionDegrees,WindSpeedMPH,WindSpeedGustMPH,Humidity,HourlyPrecipIn,Conditions,Clouds,dailyrainin,SolarRadiationWatts/m^2,SoftwareType,DateUTC
2013-03-02 00:28:00,59.2,47.0,29.91,West,261,1.0,-999.0,65,-99.99,,,0.00,0,weatherlink.com 1.10,2013-03-02 05:28:00,
2013-03-02 00:43:00,59.0,47.0,29.93,West,268,3.0,-999.0,65,-99.99,,,0.00,0,weatherlink.com 1.10,2013-03-02 05:43:00,
2013-03-02 00:58:00,58.9,47.0,29.91,WNW,294,2.0,-999.0,66,-99.99,,,0.00,0,weatherlink.com 1.10,2013-03-02 05:58:00,
2013-03-02 01:13:00,58.7,47.0,29.91,NW,307,3.0,-999.0,66,-99.99,,,0.00,0,weatherlink.com 1.10,2013-03-02 06:13:00,
2013-03-02 01:28:00,58.3,46.0,29.91,WNW,292,4.0,-999.0,65,-99.99,,,0.00,0,weatherlink.com 1.10,2013-03-02 06:28:00,
2013-03-02 01:43:00,58.1,46.0,29.91,WNW,291,5.0,-999.0,65,-99.99,,,0.00,0,weatherlink.com 1.10,2013-03-02 06:43:00,
2013-03-02 01:58:00,58.1,47.0,29.91,WNW,292,1.0,-999.0,66,-99.99,,,0.00,0,weatherlink.com 1.10,2013-03-02 06:58:00,
2013-03-02 02:13:00,57.6,46.0,29.91,WNW,298,5.0,-999.0,66,-99.99,,,0.00,0,weatherlink.com 1.10,2013-03-02 07:13:00,
2013-03-02 02:28:00,57.3,46.0,29.91,WNW,296,6.0,-999.0,66,-99.99,,,0.00,0,weatherlink.com 1.10,2013-03-02 07:28:00,
2013-03-02 02:43:00,56.9,45.0,29.91,WNW,300,5.0,-999.0,65,-99.99,,,0.00,0,weatherlink.com 1.10,2013-03-02 07:43:00,
2013-03-02 02:58:00,56.7,44.0,29.90,WNW,288,0.0,-999.0,63,-99.99,,,0.00,0,weatherlink.com 1.10,2013-03-02 07:58:00,
2013-03-02 03:13:00,56.7,44.0,29.90,WNW,296,7.0,-999.0,62,-99.99,,,0.00,0,weatherlink.com 1.10,2013-03-02 08:13:00,
2013-03-02 03:28:00,56.6,43.0,29.91,WNW,285,6.0,-999.0,61,-99.99,,,0.00,0,weatherlink.com 1.10,2013-03-02 08:28:00,
2013-03-02 03:43:00,56.5,43.0,29.91,WNW,284,3.0,-999.0,60,-99.99,,,0.00,0,weatherlink.com 1.10,2013-03-02 08:43:00,
2013-03-02 03:58:00,56.5,42.0,29.91,WNW,296,5.0,-999.0,59,-99.99,,,0.00,0,weatherlink.com 1.10,2013-03-02 08:58:00,
2013-03-02 04:14:00,56.3,42.0,29.91,WNW,298,10.0,-999.0,60,-99.99,,,0.00,0,weatherlink.com 1.10,2013-03-02 09:14:00,
2013-03-02 04:28:00,56.2,43.0,29.91,WNW,284,11.0,-999.0,61,-99.99,,,0.00,0,weatherlink.com 1.10,2013-03-02 09:28:00,
2013-03-02 04:43:00,56.2,43.0,29.91,WNW,285,3.0,-999.0,62,-99.99,,,0.00,0,weatherlink.com 1.10,2013-03-02 09:43:00,
2013-03-02 04:58:00,56.0,43.0,29.91,WNW,296,9.0,-999.0,62,-99.99,,,0.00,0,weatherlink.com 1.10,2013-03-02 09:58:00,
2013-03-02 05:13:00,55.9,43.0,29.91,WNW,285,2.0,-999.0,63,-99.99,,,0.00,0,weatherlink.com 1.10,2013-03-02 10:13:00,
2013-03-02 05:28:00,55.7,43.0,29.91,WNW,302,4.0,-999.0,62,-99.99,,,0.00,0,weatherlink.com 1.10,2013-03-02 10:28:00,
2013-03-02 05:43:00,55.7,43.0,29.93,NW,316,9.0,-999.0,62,-99.99,,,0.00,0,weatherlink.com 1.10,2013-03-02 10:43:00,
2013-03-02 06:13:00,55.7,43.0,29.93,West,279,5.0,-999.0,63,-99.99,,,0.00,0,weatherlink.com 1.10,2013-03-02 11:13:00,
2013-03-02 06:28:00,55.9,43.0,29.95,WNW,290,3.0,-999.0,63,-99.99,,,0.00,0,weatherlink.com 1.10,2013-03-02 11:28:00,
2013-03-02 06:43:00,55.7,43.0,29.95,WNW,294,5.0,-999.0,63,-99.99,,,0.00,0,weatherlink.com 1.10,2013-03-02 11:43:00,
2013-03-02 06:58:00,55.7,43.0,29.96,NNE,26,5.0,-999.0,63,-99.99,,,0.00,5,weatherlink.com 1.10,2013-03-02 11:58:00,
2013-03-02 07:13:00,55.7,43.0,29.95,West,279,5.0,-999.0,63,-99.99,,,0.00,7,weatherlink.com 1.10,2013-03-02 12:13:00,
2013-03-02 07:28:00,55.6,43.0,29.96,North,355,9.0,-999.0,64,-99.99,,,0.00,11,weatherlink.com 1.10,2013-03-02 12:28:00,
2013-03-02 07:43:00,55.6,44.0,29.96,WNW,301,4.0,-999.0,65,-99.99,,,0.00,23,weatherlink.com 1.10,2013-03-02 12:43:00,
2013-03-02 07:58:00,55.7,44.0,29.96,WNW,290,5.0,-999.0,65,-99.99,,,0.00,33,weatherlink.com 1.10,2013-03-02 12:58:00,
2013-03-02 08:13:00,55.7,44.0,29.96,NNW,328,6.0,-999.0,65,-99.99,,,0.00,67,weatherlink.com 1.10,2013-03-02 13:13:00,
2013-03-02 08:28:00,55.9,44.0,29.97,WNW,298,1.0,-999.0,65,-99.99,,,0.00,81,weatherlink.com 1.10,2013-03-02 13:28:00,
2013-03-02 08:43:00,55.6,43.0,29.96,WNW,294,10.0,-999.0,62,-99.99,,,0.00,81,weatherlink.com 1.10,2013-03-02 13:43:00,
2013-03-02 08:58:00,55.9,42.0,29.97,North,11,5.0,-999.0,61,-99.99,,,0.00,88,weatherlink.com 1.10,2013-03-02 13:58:00,
2013-03-02 09:13:00,55.6,42.0,29.98,WNW,293,3.0,-999.0,60,-99.99,,,0.00,128,weatherlink.com 1.10,2013-03-02 14:13:00,
2013-03-02 09:28:00,55.7,41.0,29.98,North,351,3.0,-999.0,59,-99.99,,,0.00,148,weatherlink.com 1.10,2013-03-02 14:28:00,
2013-03-02 09:43:00,56.3,40.0,29.98,West,272,5.0,-999.0,55,-99.99,,,0.00,230,weatherlink.com 1.10,2013-03-02 14:43:00,
2013-03-02 09:58:00,57.0,40.0,29.97,NW,326,3.0,-999.0,54,-99.99,,,0.00,304,weatherlink.com 1.10,2013-03-02 14:58:00,
2013-03-02 10:13:00,57.3,39.0,29.97,NNW,328,3.0,-999.0,50,-99.99,,,0.00,193,weatherlink.com 1.10,2013-03-02 15:13:00,
2013-03-02 10:28:00,57.8,39.0,29.97,NNW,340,5.0,-999.0,49,-99.99,,,0.00,102,weatherlink.com 1.10,2013-03-02 15:28:00,
2013-03-02 10:43:00,58.0,39.0,29.96,NW,309,2.0,-999.0,49,-99.99,,,0.00,148,weatherlink.com 1.10,2013-03-02 15:43:00,
2013-03-02 10:59:00,57.8,39.0,29.96,WNW,289,2.0,-999.0,50,-99.99,,,0.00,139,weatherlink.com 1.10,2013-03-02 15:59:00,
2013-03-02 11:13:00,58.4,40.0,29.96,NW,306,2.0,-999.0,51,-99.99,,,0.00,202,weatherlink.com 1.10,2013-03-02 16:13:00,
2013-03-02 11:28:00,58.7,40.0,29.96,North,349,1.0,-999.0,50,-99.99,,,0.00,151,weatherlink.com 1.10,2013-03-02 16:28:00,
2013-03-02 11:43:00,58.9,40.0,29.95,WNW,293,2.0,-999.0,50,-99.99,,,0.00,146,weatherlink.com 1.10,2013-03-02 16:43:00,
2013-03-02 11:58:00,59.9,39.0,29.94,NW,316,3.0,-999.0,47,-99.99,,,0.00,366,weatherlink.com 1.10,2013-03-02 16:58:00,
2013-03-02 12:13:00,61.3,40.0,29.94,WNW,301,4.0,-999.0,46,-99.99,,,0.00,306,weatherlink.com 1.10,2013-03-02 17:13:00,
2013-03-02 12:28:00,62.0,40.0,29.94,WNW,302,9.0,-999.0,45,-99.99,,,0.00,279,weatherlink.com 1.10,2013-03-02 17:28:00,
2013-03-02 12:43:00,61.8,40.0,29.94,WNW,288,7.0,-999.0,45,-99.99,,,0.00,438,weatherlink.com 1.10,2013-03-02 17:43:00,
2013-03-02 12:58:00,64.2,43.0,29.93,NW,317,6.0,-999.0,46,-99.99,,,0.00,601,weatherlink.com 1.10,2013-03-02 17:58:00,
2013-03-02 13:13:00,66.1,43.0,29.91,WNW,299,10.0,-999.0,44,-99.99,,,0.00,1046,weatherlink.com 1.10,2013-03-02 18:13:00,
2013-03-02 13:28:00,66.0,43.0,29.91,NNE,19,8.0,-999.0,44,-99.99,,,0.00,341,weatherlink.com 1.10,2013-03-02 18:28:00,
2013-03-02 13:43:00,65.2,43.0,29.91,WNW,294,6.0,-999.0,45,-99.99,,,0.00,353,weatherlink.com 1.10,2013-03-02 18:43:00,
2013-03-02 13:58:00,66.0,44.0,29.90,North,351,7.0,-999.0,45,-99.99,,,0.00,972,weatherlink.com 1.10,2013-03-02 18:58:00,
2013-03-02 14:13:00,66.4,45.0,29.90,WNW,299,6.0,-999.0,46,-99.99,,,0.00,250,weatherlink.com 1.10,2013-03-02 19:13:00,
2013-03-02 14:28:00,66.3,45.0,29.90,NW,309,4.0,-999.0,46,-99.99,,,0.00,802,weatherlink.com 1.10,2013-03-02 19:28:00,
2013-03-02 14:43:00,66.8,42.0,29.90,WNW,294,7.0,-999.0,41,-99.99,,,0.00,448,weatherlink.com 1.10,2013-03-02 19:43:00,
2013-03-02 14:58:00,66.3,44.0,29.89,NW,304,10.0,-999.0,44,-99.99,,,0.00,615,weatherlink.com 1.10,2013-03-02 19:58:00,
2013-03-02 15:13:00,66.3,44.0,29.90,WNW,282,5.0,-999.0,45,-99.99,,,0.00,861,weatherlink.com 1.10,2013-03-02 20:13:00,
2013-03-02 15:28:00,64.7,42.0,29.90,SE,135,5.0,-999.0,44,-99.99,,,0.00,253,weatherlink.com 1.10,2013-03-02 20:28:00,
2013-03-02 15:43:00,65.5,43.0,29.89,WNW,287,7.0,-999.0,44,-99.99,,,0.00,399,weatherlink.com 1.10,2013-03-02 20:43:00,
2013-03-02 15:58:00,65.5,43.0,29.89,West,275,2.0,-999.0,44,-99.99,,,0.00,613,weatherlink.com 1.10,2013-03-02 20:58:00,
2013-03-02 16:13:00,64.8,42.0,29.90,West,281,12.0,-999.0,44,-99.99,,,0.00,508,weatherlink.com 1.10,2013-03-02 21:13:00,
2013-03-02 16:28:00,64.3,42.0,29.90,WNW,293,5.0,-999.0,44,-99.99,,,0.00,362,weatherlink.com 1.10,2013-03-02 21:28:00,
2013-03-02 16:43:00,63.4,41.0,29.90,WNW,294,10.0,-999.0,44,-99.99,,,0.00,415,weatherlink.com 1.10,2013-03-02 21:43:00,
2013-03-02 16:58:00,62.9,40.0,29.90,West,263,2.0,-999.0,43,-99.99,,,0.00,109,weatherlink.com 1.10,2013-03-02 21:58:00,
2013-03-02 17:13:00,62.3,41.0,29.90,West,277,7.0,-999.0,46,-99.99,,,0.00,223,weatherlink.com 1.10,2013-03-02 22:13:00,
2013-03-02 17:28:00,62.3,42.0,29.91,West,277,5.0,-999.0,47,-99.99,,,0.00,88,weatherlink.com 1.10,2013-03-02 22:28:00,
2013-03-02 17:43:00,61.8,41.0,29.91,West,277,2.0,-999.0,47,-99.99,,,0.00,46,weatherlink.com 1.10,2013-03-02 22:43:00,
2013-03-02 17:58:00,61.3,41.0,29.92,West,273,10.0,-999.0,47,-99.99,,,0.00,37,weatherlink.com 1.10,2013-03-02 22:58:00,
2013-03-02 18:13:00,60.9,41.0,29.92,WNW,286,5.0,-999.0,48,-99.99,,,0.00,18,weatherlink.com 1.10,2013-03-02 23:13:00,
2013-03-02 18:28:00,60.4,41.0,29.93,West,259,4.0,-999.0,50,-99.99,,,0.00,0,weatherlink.com 1.10,2013-03-02 23:28:00,
2013-03-02 18:43:00,60.1,42.0,29.93,West,272,1.0,-999.0,51,-99.99,,,0.00,0,weatherlink.com 1.10,2013-03-02 23:43:00,
2013-03-02 18:58:00,59.8,42.0,29.93,West,278,5.0,-999.0,52,-99.99,,,0.00,0,weatherlink.com 1.10,2013-03-02 23:58:00,
2013-03-02 19:13:00,59.3,41.0,29.94,West,281,4.0,-999.0,51,-99.99,,,0.00,0,weatherlink.com 1.10,2013-03-03 00:13:00,
2013-03-02 19:28:00,59.0,40.0,29.95,WNW,300,10.0,-999.0,49,-99.99,,,0.00,0,weatherlink.com 1.10,2013-03-03 00:28:00,
2013-03-02 19:43:00,58.7,40.0,29.95,NW,309,1.0,-999.0,50,-99.99,,,0.00,0,weatherlink.com 1.10,2013-03-03 00:43:00,
2013-03-02 19:58:00,58.3,41.0,29.96,NW,304,3.0,-999.0,53,-99.99,,,0.00,0,weatherlink.com 1.10,2013-03-03 00:58:00,
2013-03-02 20:13:00,57.8,41.0,29.97,WNW,290,3.0,-999.0,54,-99.99,,,0.00,0,weatherlink.com 1.10,2013-03-03 01:13:00,
2013-03-02 20:28:00,57.5,41.0,29.97,NW,321,4.0,-999.0,55,-99.99,,,0.00,0,weatherlink.com 1.10,2013-03-03 01:28:00,
2013-03-02 20:43:00,57.2,41.0,29.98,WNW,292,1.0,-999.0,55,-99.99,,,0.00,0,weatherlink.com 1.10,2013-03-03 01:43:00,
2013-03-02 20:58:00,57.0,41.0,29.98,WNW,297,0.0,-999.0,56,-99.99,,,0.00,0,weatherlink.com 1.10,2013-03-03 01:58:00,
2013-03-02 21:13:00,56.7,41.0,29.98,WNW,297,0.0,-999.0,57,-99.99,,,0.00,0,weatherlink.com 1.10,2013-03-03 02:13:00,
2013-03-02 21:28:00,56.5,42.0,29.98,WNW,297,0.0,-999.0,58,-99.99,,,0.00,0,weatherlink.com 1.10,2013-03-03 02:28:00,
2013-03-02 21:43:00,56.2,42.0,29.98,WNW,297,0.0,-999.0,59,-99.99,,,0.00,0,weatherlink.com 1.10,2013-03-03 02:43:00,
2013-03-02 21:58:00,56.0,42.0,29.98,WNW,297,0.0,-999.0,59,-99.99,,,0.00,0,weatherlink.com 1.10,2013-03-03 02:58:00,
2013-03-02 22:13:00,56.0,42.0,29.98,WNW,297,0.0,-999.0,60,-99.99,,,0.00,0,weatherlink.com 1.10,2013-03-03 03:13:00,
2013-03-02 22:28:00,55.9,42.0,29.98,WNW,297,0.0,-999.0,60,-99.99,,,0.00,0,weatherlink.com 1.10,2013-03-03 03:28:00,
2013-03-02 22:43:00,55.7,42.0,29.98,WNW,297,0.0,-999.0,61,-99.99,,,0.00,0,weatherlink.com 1.10,2013-03-03 03:43:00,
2013-03-02 22:58:00,55.3,42.0,29.98,WNW,297,0.0,-999.0,62,-99.99,,,0.00,0,weatherlink.com 1.10,2013-03-03 03:58:00,
2013-03-02 23:13:00,55.0,42.0,29.97,WNW,297,0.0,-999.0,62,-99.99,,,0.00,0,weatherlink.com 1.10,2013-03-03 04:13:00,
2013-03-02 23:28:00,54.5,42.0,29.96,WNW,297,0.0,-999.0,63,-99.99,,,0.00,0,weatherlink.com 1.10,2013-03-03 04:28:00,
2013-03-02 23:43:00,54.1,42.0,29.96,WNW,297,0.0,-999.0,64,-99.99,,,0.00,0,weatherlink.com 1.10,2013-03-03 04:43:00,
2013-03-02 23:58:00,53.9,42.0,29.96,WNW,297,0.0,-999.0,65,-99.99,,,0.00,0,weatherlink.com 1.10,2013-03-03 04:58:00,